STARLINK-11675, 64235

Orbit data source: Space-Track

STARLINK-11675, 64235 is a payload satellite owned by SpaceX/Seattle (US) in LEO that was launched on Tue, 03 Jun 2025 UTC via an FALCON 9 launch vehicle from the Air Force Eastern Test Range (AFETR). Payload-class satellites include a variety of spacecraft equipped with specific instruments for various scientific and technological missions. These include communications satellites like Starlink; space stations such as the ISS; scientific satellites like the Hubble; Earth observation satellites from companies like Planet Labs, Umbra, and HawkEye 360; GPS; miniature CubeSats for education and research; and military/defense satellites.

Loading next visibility...
Identifier
64235, 2025-119C
Orbit
LEO
Country
Flag of USUS
Related business
Manufacturer
SpaceX/Seattle
Mission
Operational Commercial Communications
Bus & Motor
STARLINK V2MD, Unknown motor
Mass
960 kg wet, ~910 kg dry
Launch date (UTC)
2025-06-03 (1 year ago)
Launch vehicle
FALCON 9
Launch site
Air Force Eastern Test Range (AFETR)
Object type
Payload
Rocket body
Debris
Shape & HBR
Box + 2 Pan, 18.1 m
Radar Cross Section
36.964 m², Large (>1 m²)

Expand to show TLE details & history
Last TLE update: 10 hours ago

TLE from 10 hours ago
0 STARLINK-11675
1 64235U 25119C   26171.43767703  .00277054  00000-0  20811-2 0  9991
2 64235  42.9990 309.8465 0002692 267.0701  92.9858 15.70957417 61400
Epoch: 2026-06-20T10:30Z
TLE epoch observation values (Epoch: 2026-06-20T10:30:15.295Z)
Latitude
-0.00006°
Longitude
-116.3696°
Altitude
356.025 km
Speed
7.697 km/s
True Right ascension
20h 39m 23s
True Declination
0° 00' 00"
Sunlit
Object was in full shadow at epoch
Visualization orbit readout
Latitude
Unknown
Longitude
Unknown
Altitude
Unknown
Speed
Unknown
Apparent Right ascension
Unknown
Apparent Declination
Unknown
Sunlit
N/A
Visualization observer readout
Local Sidereal Time
07:14:15
Azimuth
Unknown
Elevation
Unknown
Doppler factor
Unknown
Orbital elements
Apogee altitude
359.955 km
Perigee altitude
356.328 km
Semi-major axis
6,736.278 km
Eccentricity
0.00027
Inclination
42.999°
RAAN
309.8465°
Arg. of periapsis
267.0701°
True anomaly
93.01661°
Mean anomaly
92.9858°
Eccentric anomaly
93.0012°
Mean motion
3.92566 °/min
Orbital period
91.7 mins
BSTAR
0.0020811
Loading maneuver chart data...
Computing Atmospheric mass density...
Loading historical data...
Loading historical data...
Loading historical data...
Loading historical data...
Loading historical data...
Loading historical data...
Loading historical data...

Documentation

Showing up to 5 results
|